| time (UTC) | temp F | wind direction | speed knots | gust knots | rain 1hr in | rain 24hr in | rain mn in | humidity % | barometer mb |
| 20260503220044 | 54 | 184 | 0.0 | 1.7 | 0.00 | 0.00 | 0.00 | 33 | |
| 20260503215439 | 55 | 177 | 0.9 | 3.5 | 0.00 | 0.00 | 0.00 | 31 | |
| 20260503214810 | 55 | 229 | 0.0 | 2.6 | 0.00 | 0.00 | 0.00 | 31 | |
| 20260503214224 | 56 | 191 | 0.9 | 2.6 | 0.00 | 0.00 | 0.00 | 31 | |
| 20260503213647 | 56 | 183 | 0.0 | 3.5 | 0.00 | 0.00 | 0.00 | 31 | |
| 20260503212440 | 56 | 153 | 0.9 | 5.2 | 0.00 | 0.00 | 0.00 | 30 | |
| 20260503211827 | 54 | 324 | 1.7 | 5.2 | 0.00 | 0.00 | 0.00 | 32 | |
| 20260503211227 | 54 | 23 | 2.6 | 5.2 | 0.00 | 0.00 | 0.00 | 31 | |
| 20260503210647 | 55 | 337 | 3.5 | 7.0 | 0.00 | 0.00 | 0.00 | 31 | |
| 20260503210017 | 55 | 184 | 0.9 | 1.7 | 0.00 | 0.00 | 0.00 | 33 | |
| 20260503205430 | 54 | 208 | 1.7 | 3.5 | 0.00 | 0.00 | 0.00 | 32 | |
| 20260503204242 | 54 | 188 | 1.7 | 8.7 | 0.00 | 0.00 | 0.00 | 32 | |
| 20260503203038 | 55 | 231 | 0.9 | 3.5 | 0.00 | 0.00 | 0.00 | 31 | |
| 20260503202422 | 54 | 180 | 0.0 | 7.0 | 0.00 | 0.00 | 0.00 | 33 | |
| 20260503201816 | 55 | 358 | 4.3 | 6.1 | 0.00 | 0.00 | 0.00 | 31 | |
| 20260503201234 | 55 | 223 | 0.0 | 2.6 | 0.00 | 0.00 | 0.00 | 33 | |
| 20260503200625 | 55 | 217 | 0.9 | 5.2 | 0.00 | 0.00 | 0.00 | 32 | |
| 20260503200026 | 54 | 213 | 0.9 | 2.6 | 0.00 | 0.00 | 0.00 | 33 | |
| 20260503195409 | 54 | 187 | 1.7 | 6.1 | 0.00 | 0.00 | 0.00 | 33 | |
| 20260503194821 | 54 | 178 | 0.0 | 1.7 | 0.00 | 0.00 | 0.00 | 31 | |
| 20260503194241 | 53 | 218 | 2.6 | 2.6 | 0.00 | 0.00 | 0.00 | 33 | |
| 20260503193621 | 54 | 175 | 2.6 | 5.2 | 0.00 | 0.00 | 0.00 | 31 | |
| 20260503193043 | 55 | 350 | 5.2 | 6.1 | 0.00 | 0.00 | 0.00 | 31 | |
| 20260503192436 | 55 | 217 | 0.9 | 1.7 | 0.00 | 0.00 | 0.00 | 32 | |
| 20260503191842 | 54 | 168 | 0.9 | 2.6 | 0.00 | 0.00 | 0.00 | 33 | |
| 20260503191249 | 53 | 193 | 1.7 | 2.6 | 0.00 | 0.00 | 0.00 | 34 | |
| 20260503190636 | 53 | 175 | 1.7 | 3.5 | 0.00 | 0.00 | 0.00 | 33 | |
| 20260503190052 | 53 | 220 | 1.7 | 3.5 | 0.00 | 0.00 | 0.00 | 35 | |
| 20260503185423 | 53 | 176 | 0.9 | 3.5 | 0.00 | 0.00 | 0.00 | 33 | |
| 20260503184846 | 53 | 174 | 0.0 | 3.5 | 0.00 | 0.00 | 0.00 | 33 | |
| 20260503184216 | 54 | 157 | 0.9 | 6.1 | 0.00 | 0.00 | 0.00 | 31 | |
| 20260503183031 | 52 | 139 | 1.7 | 3.5 | 0.00 | 0.00 | 0.00 | 35 | |
| 20260503182446 | 52 | 172 | 0.9 | 2.6 | 0.00 | 0.00 | 0.00 | 35 | |
| 20260503181853 | 52 | 174 | 1.7 | 5.2 | 0.00 | 0.00 | 0.00 | 33 | |
| 20260503181236 | 51 | 175 | 0.9 | 7.0 | 0.00 | 0.00 | 0.00 | 34 | |
| 20260503180651 | 52 | 196 | 0.9 | 6.1 | 0.00 | 0.00 | 0.00 | 34 | |
| 20260503180027 | 52 | 184 | 0.9 | 1.7 | 0.00 | 0.00 | 0.00 | 35 | |
| 20260503175417 | 51 | 116 | 0.9 | 6.1 | 0.00 | 0.00 | 0.00 | 35 | |
| 20260503174820 | 52 | 346 | 5.2 | 7.8 | 0.00 | 0.00 | 0.00 | 35 | |
| 20260503174213 | 51 | 263 | 1.7 | 5.2 | 0.00 | 0.00 | 0.00 | 35 | |
| 20260503173628 | 51 | 197 | 2.6 | 2.6 | 0.00 | 0.00 | 0.00 | 34 | |
| 20260503173035 | 52 | 340 | 2.6 | 7.0 | 0.00 | 0.00 | 0.00 | 35 | |
| 20260503172413 | 52 | 198 | 2.6 | 5.2 | 0.00 | 0.00 | 0.00 | 36 | |
| 20260503171814 | 51 | 287 | 2.6 | 5.2 | 0.00 | 0.00 | 0.00 | 35 | |
| 20260503171254 | 52 | 240 | 1.7 | 1.7 | 0.00 | 0.00 | 0.00 | 35 | |
| 20260503150630 | 43 | 182 | 0.9 | 6.1 | 0.00 | 0.00 | 0.00 | 46 | |
| 20260503130620 | 39 | 163 | 3.5 | 5.2 | 0.00 | 0.00 | 0.00 | 54 | |
| 20260503110645 | 32 | 178 | 0.0 | 0.0 | 0.00 | 0.00 | 0.00 | 78 | |
| 20260503081246 | 32 | 145 | 0.0 | 0.0 | 0.00 | 0.00 | 0.00 | 76 | |
| 20260503072411 | 32 | 174 | 0.0 | 0.0 | 0.00 | 0.00 | 0.00 | 77 | |
| 20260503071838 | 32 | 177 | 0.0 | 0.0 | 0.00 | 0.00 | 0.00 | 77 | |
| 20260503071227 | 32 | 178 | 0.0 | 0.0 | 0.00 | 0.00 | 0.00 | 77 | |
| 20260503070623 | 32 | 178 | 0.0 | 0.0 | 0.00 | 0.00 | 0.00 | 78 | |
| 20260503054237 | 36 | 181 | 0.0 | 0.9 | 0.00 | 0.00 | 0.00 | 75 | |
| 20260503053623 | 36 | 181 | 0.0 | 2.6 | 0.00 | 0.00 | 0.00 | 74 | |
| 20260503053051 | 36 | 175 | 0.0 | 0.0 | 0.00 | 0.00 | 0.00 | 74 | |
| 20260503052424 | 36 | 182 | 0.0 | 0.0 | 0.00 | 0.00 | 0.00 | 73 | |
| 20260503051854 | 36 | 180 | 1.7 | 2.6 | 0.00 | 0.00 | 0.00 | 74 | |
| 20260503051244 | 36 | 187 | 0.9 | 0.9 | 0.00 | 0.00 | 0.00 | 73 | |
| 20260503050649 | 36 | 175 | 0.0 | 2.6 | 0.00 | 0.00 | 0.00 | 74 | |
| 20260503050053 | 36 | 346 | 1.7 | 1.7 | 0.00 | 0.00 | 0.00 | 73 | |
| 20260503045418 | 37 | 175 | 0.0 | 0.9 | 0.00 | 0.00 | 0.00 | 74 | |
| 20260503044845 | 37 | 174 | 1.7 | 1.7 | 0.00 | 0.00 | 0.00 | 74 | |
| 20260503044242 | 37 | 177 | 0.0 | 1.7 | 0.00 | 0.00 | 0.00 | 74 | |
| 20260503043639 | 37 | 177 | 0.0 | 1.7 | 0.00 | 0.00 | 0.00 | 76 | |
| 20260503043016 | 37 | 351 | 1.7 | 2.6 | 0.00 | 0.00 | 0.00 | 73 | |
| 20260503042443 | 37 | 173 | 0.0 | 0.9 | 0.00 | 0.00 | 0.00 | 75 | |
| 20260503041823 | 37 | 180 | 0.0 | 0.0 | 0.00 | 0.00 | 0.00 | 74 | |
| 20260503040623 | 37 | 182 | 0.0 | 0.0 | 0.00 | 0.00 | 0.00 | 75 | |
| 20260503040047 | 37 | 179 | 0.0 | 0.0 | 0.00 | 0.00 | 0.00 | 74 | |
| 20260503035451 | 37 | 180 | 0.0 | 0.0 | 0.00 | 0.00 | 0.00 | 74 | |
| 20260503034851 | 37 | 178 | 0.0 | 0.0 | 0.00 | 0.00 | 0.00 | 73 | |
| 20260503034216 | 38 | 184 | 0.0 | 0.0 | 0.00 | 0.00 | 0.00 | 73 | |
| 20260503033638 | 38 | 177 | 0.0 | 1.7 | 0.00 | 0.00 | 0.00 | 72 | |
| 20260503032419 | 38 | 209 | 0.0 | 0.0 | 0.00 | 0.00 | 0.00 | 71 | |
| 20260503031839 | 38 | 178 | 0.0 | 0.0 | 0.00 | 0.00 | 0.00 | 71 | |
| 20260503031244 | 38 | 179 | 0.0 | 0.0 | 0.00 | 0.00 | 0.00 | 70 | |
| 20260503030642 | 38 | 160 | 0.9 | 1.7 | 0.00 | 0.00 | 0.00 | 70 | |
| 20260503030024 | 38 | 167 | 0.9 | 0.9 | 0.00 | 0.00 | 0.00 | 69 | |
| 20260503025424 | 39 | 216 | 0.0 | 0.0 | 0.00 | 0.00 | 0.00 | 69 | |
| 20260503024829 | 39 | 174 | 0.0 | 0.0 | 0.00 | 0.00 | 0.00 | 69 | |
| 20260503024233 | 39 | 177 | 0.9 | 0.9 | 0.00 | 0.00 | 0.00 | 69 | |
| 20260503023618 | 39 | 180 | 0.0 | 0.9 | 0.00 | 0.00 | 0.00 | 67 | |
| 20260503023036 | 39 | 173 | 0.0 | 0.0 | 0.00 | 0.00 | 0.00 | 65 | |
| 20260503022452 | 39 | 175 | 0.0 | 1.7 | 0.00 | 0.00 | 0.00 | 64 | |
| 20260503021852 | 39 | 178 | 0.0 | 0.0 | 0.00 | 0.00 | 0.00 | 64 | |
| 20260503021241 | 40 | 180 | 0.0 | 0.0 | 0.00 | 0.00 | 0.00 | 63 | |
| 20260503020644 | 39 | 179 | 0.0 | 0.9 | 0.00 | 0.00 | 0.00 | 63 | |
| 20260503020048 | 39 | 180 | 0.0 | 0.9 | 0.00 | 0.00 | 0.00 | 65 | |
| 20260503014817 | 38 | 179 | 0.0 | 0.0 | 0.00 | 0.00 | 0.00 | 66 | |
| 20260503014252 | 38 | 178 | 0.0 | 0.0 | 0.00 | 0.00 | 0.00 | 67 | |
| 20260503013627 | 38 | 177 | 0.0 | 0.9 | 0.00 | 0.00 | 0.00 | 67 | |
| 20260503013014 | 38 | 179 | 0.0 | 0.0 | 0.00 | 0.00 | 0.00 | 67 | |
| 20260503011811 | 38 | 176 | 0.0 | 0.0 | 0.00 | 0.00 | 0.00 | 67 | |
| 20260503011231 | 38 | 177 | 0.0 | 0.0 | 0.00 | 0.00 | 0.00 | 67 | |
| 20260503010623 | 39 | 175 | 0.0 | 0.0 | 0.00 | 0.00 | 0.00 | 66 | |
| 20260503010028 | 39 | 180 | 0.0 | 0.0 | 0.00 | 0.00 | 0.00 | 65 | |
| 20260503005414 | 40 | 181 | 0.0 | 0.0 | 0.00 | 0.00 | 0.00 | 66 | |
| 20260503004843 | 40 | 181 | 0.0 | 0.0 | 0.00 | 0.00 | 0.00 | 64 | |
| 20260503004211 | 40 | 178 | 0.0 | 0.9 | 0.00 | 0.00 | 0.00 | 63 | |
| 20260503003641 | 41 | 178 | 0.0 | 0.9 | 0.00 | 0.00 | 0.00 | 62 | |
| 20260503003018 | 41 | 187 | 0.0 | 0.0 | 0.00 | 0.00 | 0.00 | 62 | |
| 20260503001815 | 42 | 188 | 0.0 | 3.5 | 0.00 | 0.00 | 0.00 | 59 | |
| 20260503001232 | 42 | 181 | 0.0 | 2.6 | 0.00 | 0.00 | 0.00 | 56 | |
| 20260503000048 | 42 | 169 | 0.9 | 1.7 | 0.00 | 0.00 | 0.00 | 56 | |
| 20260502235410 | 42 | 0 | 2.6 | 7.8 | 0.00 | 0.00 | 0.00 | 55 | |
| 20260502234841 | 43 | 166 | 0.9 | 7.0 | 0.00 | 0.00 | 0.00 | 54 | |
| 20260502234245 | 43 | 192 | 0.0 | 1.7 | 0.00 | 0.00 | 0.00 | 53 | |
| 20260502233641 | 43 | 140 | 0.0 | 0.9 | 0.00 | 0.00 | 0.00 | 52 | |
| 20260502232429 | 43 | 173 | 0.0 | 0.9 | 0.00 | 0.00 | 0.00 | 51 | |
| 20260502231840 | 43 | 179 | 0.0 | 0.9 | 0.00 | 0.00 | 0.00 | 51 | |
| 20260502231212 | 44 | 169 | 0.0 | 0.0 | 0.00 | 0.00 | 0.00 | 51 | |
| 20260502230630 | 44 | 182 | 0.0 | 1.7 | 0.00 | 0.00 | 0.00 | 50 | |
| 20260502230040 | 44 | 17 | 2.6 | 3.5 | 0.00 | 0.00 | 0.00 | 50 | |
| 20260502225434 | 44 | 178 | 0.9 | 2.6 | 0.00 | 0.00 | 0.00 | 50 | |
| 20260502224832 | 44 | 150 | 0.0 | 0.9 | 0.00 | 0.00 | 0.00 | 51 | |
| 20260502224227 | 44 | 78 | 3.5 | 5.2 | 0.00 | 0.00 | 0.00 | 51 | |
| 20260502223035 | 44 | 182 | 0.0 | 2.6 | 0.00 | 0.00 | 0.00 | 49 | |
| 20260502222421 | 45 | 178 | 0.0 | 0.9 | 0.00 | 0.00 | 0.00 | 51 | |
| 20260502221839 | 44 | 156 | 0.9 | 1.7 | 0.00 | 0.00 | 0.00 | 50 | |
| 20260502221254 | 45 | 144 | 3.5 | 5.2 | 0.00 | 0.00 | 0.00 | 49 |